Regional Weather Roundup
Issued by NWS Newport/Morehead, NC

Current Version | Previous Version | Text Only | Print | Product List | Glossary On
Versions: 1 2 3 4 5 6 7 8 9 10 11 12 13 14 15 16 17 18 19 20 21 22 23 24 25 26 27 28 29 30 31 32 33 34 35 36 37 38 39 40 41 42 43 44 45 46 47 48 49 50
352
ASUS42 KMHX 252125
RWRMHX
WEATHER ROUNDUP FOR EASTERN NORTH CAROLINA
NATIONAL WEATHER SERVICE NEWPORT/MOREHEAD CITY NC
500 PM EDT TUE APR 25 2017

NOTE: "FAIR" INDICATES FEW OR NO CLOUDS BELOW 12,000 FEET
WITH NO SIGNIFICANT WEATHER AND/OR OBSTRUCTIONS TO VISIBILITY

NCZ015>017-031-032-045>047-102-103-252200-
NORTH COAST

CITY           SKY/WX    TMP DP  RH WIND       PRES   REMARKS
EDENTON        PTSUNNY   71  62  73 CALM      29.62R
ELIZABETH CITY CLOUDY    69  64  84 S3        29.60R
KITTY HAWK     CLOUDY    65  65 100 CALM      29.60R
MANTEO         MOSUNNY   69  61  74 E5        29.61S

$$

NCZ045>047-081-094-103-104-252200-
CENTRAL COAST

CITY           SKY/WX    TMP DP  RH WIND       PRES   REMARKS
FRISCO         MOSUNNY   73  62  68 S6        29.62S HAZE

$$

NCZ095-097-098-100-101-252200-
SOUTHERN COAST

CITY           SKY/WX    TMP DP  RH WIND       PRES   REMARKS
BEAUFORT       MOSUNNY   70  62  76 SW14      29.62R
CEDAR ISLAND   NOT AVBL
JACKSONVILLE   LGT RAIN  66  65  96 CALM      29.61R FOG
PINEY ISLAND   PTCLDY   N/A N/A N/A S10       29.61S
WILMINGTON     PTSUNNY   72  60  66 W15       29.62S


$$

NCZ011>013-027>030-043-044-078>080-089-090>093-098-252200-
COASTAL PLAIN

CITY           SKY/WX    TMP DP  RH WIND       PRES   REMARKS
AHOSKIE        DRIZZLE   70  63  78 N5        29.61R
CLINTON        PTSUNNY   71  62  72 W5        29.63S
ELIZABETHTOWN  CLOUDY    66  64  91 SW7       29.64R
GOLDSBORO      CLOUDY    73  60  64 NW10      29.59R
GREENVILLE     PTSUNNY   70  57  64 SE9       29.63F
HAVELOCK       MOSUNNY   73  59  61 S14       29.69R
KENANSVILLE    CLOUDY    66  63  88 W7        29.62S
KINSTON        CLOUDY    72  59  64 CALM      29.61R
NEW BERN       PTSUNNY   71  64  78 W3        29.62R
RICHLANDS      CLOUDY    72  61  68 W7        29.61S
ROCKY MOUNT    MOSUNNY   75  59  57 W7        29.60S
WASHINGTON     PTSUNNY   63  60  92 S6        29.61F
WHITEVILLE     CLOUDY    64  60  87 SW8       29.66S

$$

AMZ130-135-150-152-154-156-158-170-250-252-270-ANZ085-086-088-633-658-670-252200-
MARINE OBSERVATIONS

STATION/POSITION TIME  TEMP    WIND        PRES    WAVE   SWELL
                       AIR SEA DIR/SP/G            HT/PER HT/PER
                 (UTC) (F)     (DEG/KT/KT) (MB)    (FT/S) (FT/S)
CHESAPEAKE LIGHT NOT AVBL
64 E VA BEACH    2050   59 55  350/  4/ 10 1001.8   10/11  10/11
DUCK             2100   62 59  160/  5/  5 1002.1
2 E DUCK         2100      60                N/A     6/ 8   3/11
OREGON INLET     2100   64 64   60/  5/  5 1002.6
13E OREGON INLT  2048      60                N/A     8/11   8/11
HATTERAS CG      2100   68 68  150/  6/  8 1003.0
DIAMOND BUOY     2050   71 78  220/  8/ 12 1002.8    7/10   7/10
CAPE LOOKOUT     2100   69     210/  7/ 12 1002.9
BEAUFORT LAB     2100   69 67  210/ 10/ 14 1002.3
30 SE NEW RVR IN 2108   67     240/ 17/ 23 1003.0
30 SE NEW RVR IN 2043      72                N/A     7/10   3/11
27 SE WRIGHTSVLE 2108   68 72  240/ 17/ 23 1003.1
5 SE WRIGHTSVLE  2108   68 70  220/ 16/ 23 1003.1
225 S CAPE HAT   2050   73 75  240/ 17/ 21 1006.6    9/ 9   5/ 9
41 SE CHARLESTON 2110   68 73  250/ 16/ 19 1005.5

$$




USA.gov is the U.S. government's official web portal to all federal, state and local government web resources and services.